Location: LDNL
(36.4545°S, 141.6685°E)
Time: 17:21:14
(UTC+10:00)

Courier 1B Rocket - Pass Details

Date: 19 August 2022
Orbit: 920 x 1202 km, 28.2° (Epoch: 25 September)

Event Time Altitude Azimuth Distance (km) Brightness Sun altitude
Exits shadow 03:43:34 29° 56° (ENE) 2,062 6.8 -42.2°
Drops below altitude 10° 03:47:20 10° 73° (ENE) 3,133 8.1 -41.5°
Sets 03:50:17 0° 78° (ENE) 4,082 8.9 -40.9°
